EDRS-C

Last updated on Sun Apr 12 2026 00:02:55 GMT+0000 (Coordinated Universal Time)

1 44475U 19049A 26101.48586405 -.00000260 00000+0 00000+0 0 9994 2 44475 0.0169 160.6169 0001272 220.4728 136.0344 1.00273457 24543
UTC large
Height (km)
Speed (km/s)
/
Latitude / Longitude
Inclination (degrees)
Orbital Period (minutes)
Azimuth
Elevation
Range (km)
Doppler Factor

Next 0 passes for location: London (51.5072 / 0.1276)

Sorry there are no passes over London.
EDRS-C